GFSSE_sfc_thetae_276.txt.gz
Theta_e
324 333 342 347 349 347 346 345 345 348 347 346 345 345 343 342 341 341 340 341 340 340 340 338 337 337 336 334 334 336 338 338 338 337 336 337 336 335 336 336 338 334 337
322 333 338 344 347 348 346 346 345 348 346 345 345 345 344 343 342 341 341 343 343 338 338 335 334 333 333 331 332 333 337 337 335 334 336 335 335 334 339 339 338 336 339
321 330 329 338 343 345 346 346 345 345 345 345 345 345 345 344 342 341 339 341 341 336 335 334 335 337 335 333 330 329 330 332 331 332 333 327 326 334 338 338 338 338 338
319 324 325 334 339 341 344 344 344 344 344 344 344 344 343 343 343 341 339 339 339 337 335 333 337 335 333 332 332 331 329 328 327 328 323 327 331 336 337 336 338 338 338
313 318 324 330 331 336 339 341 342 342 343 343 344 344 343 341 341 341 339 339 338 335 334 336 336 333 330 332 331 329 327 327 328 324 318 320 324 337 337 336 335 334 336
309 314 321 326 326 327 331 333 338 341 341 343 342 343 343 341 340 340 340 340 338 336 334 335 334 333 330 331 329 328 327 327 327 317 319 323 327 338 336 334 333 333 334
308 311 314 322 324 324 325 326 329 333 339 340 341 342 342 343 342 340 339 338 339 338 334 334 331 330 331 329 328 327 327 326 320 317 317 322 332 337 337 336 335 335 333
307 309 310 315 319 320 322 324 324 326 328 333 339 341 342 342 342 341 339 338 338 338 336 335 332 332 330 329 328 327 327 326 320 317 317 321 332 334 335 337 337 336 335
306 307 307 309 312 314 316 320 322 323 324 325 328 336 339 339 340 339 338 337 339 339 338 336 333 330 329 329 328 328 326 324 316 317 320 322 333 332 335 336 337 334 334
304 305 305 306 308 309 310 316 319 320 322 322 323 325 331 333 335 335 332 335 337 338 338 335 333 331 330 328 328 328 324 323 316 316 321 324 334 332 334 335 334 333 333
303 303 304 305 306 307 309 312 313 316 319 321 322 323 325 331 331 330 329 332 336 336 336 334 334 332 330 328 328 326 324 317 315 316 319 330 334 333 332 333 333 332 332
299 302 303 303 304 306 308 308 309 311 313 315 319 323 322 329 329 330 326 328 332 331 333 334 333 330 326 322 321 324 318 315 314 315 321 331 334 333 332 332 332 333 334
298 300 302 303 304 304 304 306 306 308 309 312 314 319 323 322 327 328 327 327 329 323 327 329 327 324 321 318 318 318 317 314 312 315 323 330 335 333 332 333 333 333 334
297 299 301 301 302 303 304 304 305 305 306 307 309 312 316 321 327 327 326 325 328 326 323 322 321 321 320 317 316 316 316 313 313 317 321 325 331 333 332 333 332 333 333
297 298 299 300 302 303 303 304 304 304 304 306 307 310 312 318 321 326 326 323 324 323 323 322 320 319 318 317 316 315 313 313 314 317 320 321 328 332 333 333 332 331 329
298 298 299 300 301 302 302 303 303 304 304 304 306 308 312 314 319 324 325 324 324 324 322 322 320 317 316 316 315 314 313 314 316 316 320 322 325 329 330 329 329 329 329
298 299 299 301 302 301 301 302 303 306 305 305 305 307 308 313 315 320 324 324 323 324 322 322 319 316 315 315 314 314 313 315 316 319 321 320 319 320 325 327 328 329 330
298 298 299 301 300 301 302 303 304 305 305 305 306 306 308 309 312 316 323 322 324 323 322 320 318 315 313 312 312 313 313 316 318 317 318 317 316 316 319 322 324 327 328
296 296 297 299 300 302 303 303 304 304 304 305 306 307 308 308 310 313 321 324 324 322 321 319 317 316 313 312 312 313 315 318 317 315 313 312 312 312 313 314 314 317 323
294 295 296 299 301 302 303 303 303 303 304 305 305 306 308 307 308 312 320 323 323 322 320 319 318 317 314 313 315 314 314 313 313 312 310 310 310 309 308 308 309 310 316
293 294 296 297 301 301 301 300 301 301 302 304 305 307 308 307 308 312 320 323 322 321 320 319 318 316 314 315 312 309 309 309 308 308 309 308 307 308 307 307 306 307 307
292 294 296 298 300 301 301 301 302 302 303 304 306 307 310 308 309 312 321 321 321 321 319 319 318 315 315 315 312 311 306 306 306 306 307 306 306 306 305 306 306 304 303
292 293 297 299 300 300 300 301 303 306 304 303 304 306 310 312 312 315 321 321 320 321 319 318 318 315 313 315 314 309 304 304 304 305 304 304 304 304 305 304 304 301 299
292 293 296 298 299 300 300 300 300 305 305 308 309 310 310 312 314 321 321 320 320 320 319 318 318 317 316 313 313 311 310 307 301 299 303 302 303 303 303 303 302 299 297
292 292 294 299 299 299 299 299 301 304 306 311 314 312 309 315 319 321 321 320 320 319 319 319 318 318 317 315 312 307 307 306 306 303 297 299 303 302 301 300 297 296 295
291 292 294 297 298 298 298 298 299 301 304 308 310 311 313 316 319 320 320 320 320 319 319 319 318 316 313 312 311 309 307 306 305 304 299 300 297 298 298 297 296 293 292

GFSSE_sfc_thetae_279.txt.gz
Theta_e
317 325 337 345 347 347 346 345 345 346 346 345 344 343 341 340 342 342 343 343 341 341 341 340 338 337 336 337 338 337 338 339 338 337 339 338 337 336 337 337 337 332 336
313 327 334 340 344 345 345 343 343 344 345 345 345 344 343 342 341 340 340 341 340 340 339 338 337 338 336 334 334 338 338 336 334 334 335 336 336 338 337 337 337 335 338
312 322 325 334 338 341 343 342 343 343 345 345 345 344 344 343 342 341 340 340 339 338 337 335 335 336 334 330 330 332 334 333 332 333 332 325 325 337 338 338 337 339 339
311 319 322 330 329 332 338 340 342 341 342 343 343 344 344 342 342 341 340 339 338 336 336 334 338 336 334 332 330 331 330 329 328 329 324 327 329 335 337 336 338 338 338
310 314 321 327 327 328 329 333 336 340 341 341 342 343 344 343 342 342 340 339 339 337 335 333 337 335 333 332 331 330 328 327 327 322 317 318 324 334 336 336 336 335 336
309 310 314 323 325 325 325 326 328 331 336 341 340 340 341 342 341 340 340 340 340 338 335 336 336 333 332 332 331 329 327 327 323 315 316 319 322 333 338 337 334 332 335
306 307 310 318 320 321 322 323 324 325 328 331 336 339 340 341 342 341 340 341 340 339 334 336 335 332 332 331 329 328 328 326 317 316 317 325 326 335 335 335 334 333 334
305 307 308 312 315 316 318 319 321 322 324 326 327 332 335 338 340 341 341 340 339 340 338 337 333 332 331 330 329 328 328 325 319 316 316 322 332 334 335 334 336 335 333
303 304 305 306 309 312 314 315 317 318 320 322 323 324 325 327 336 338 338 339 338 338 338 337 334 333 330 329 328 329 326 323 315 316 320 320 333 333 335 336 336 335 334
302 302 303 303 305 306 307 313 314 315 316 318 319 322 323 323 328 333 332 335 337 337 337 336 335 332 330 329 329 328 324 323 315 315 317 321 333 333 335 336 335 334 333
302 302 302 302 303 305 307 309 310 312 313 313 315 320 322 323 326 330 330 332 334 335 336 335 334 332 330 328 328 326 323 316 314 315 318 326 334 333 333 334 334 333 332
297 300 301 300 301 303 305 306 306 308 308 308 311 315 320 322 323 330 325 327 330 330 333 333 333 330 326 322 323 324 318 315 314 315 316 328 334 333 332 332 332 332 333
297 298 300 301 301 301 302 304 304 305 305 306 308 310 312 317 322 324 329 327 328 323 329 329 328 323 321 320 319 319 317 314 312 313 320 329 334 333 333 333 333 333 334
296 298 299 300 299 301 301 302 303 303 304 304 305 307 308 310 316 319 327 327 328 327 326 325 322 320 318 318 317 316 316 314 312 316 318 324 331 333 333 332 331 332 332
296 297 298 299 299 301 301 301 302 302 302 303 304 306 308 308 313 319 323 325 325 325 325 322 320 318 316 315 314 315 315 312 313 317 320 320 328 332 332 332 331 330 328
297 297 298 299 299 300 300 300 301 302 302 303 303 305 307 309 310 314 320 323 323 324 323 322 319 317 316 314 314 314 312 313 315 318 323 323 326 329 329 330 330 330 330
297 297 297 299 300 299 300 302 302 304 305 305 304 304 305 307 308 314 317 322 323 324 323 322 320 316 315 314 313 312 312 315 318 319 320 321 321 321 327 329 329 329 330
295 295 297 299 298 299 301 303 303 304 304 305 305 306 305 307 308 310 313 317 324 324 323 322 319 316 314 312 310 311 312 317 317 317 316 315 316 318 320 323 326 328 328
292 294 295 297 297 300 301 302 303 304 304 305 305 305 307 307 307 308 312 313 324 323 321 321 319 317 314 313 313 313 315 314 315 314 312 312 313 313 313 314 315 318 324
292 294 295 296 298 300 301 303 303 303 304 305 305 306 307 308 306 307 310 312 322 321 320 320 318 317 315 314 314 311 312 312 311 310 310 311 309 308 308 307 308 310 317
292 293 295 296 299 300 300 300 300 300 302 304 305 306 307 308 306 306 310 315 322 320 319 319 317 315 313 313 309 308 307 308 308 308 309 308 307 307 306 306 305 305 305
291 292 295 296 300 300 300 300 301 302 303 305 305 306 307 310 306 307 311 319 321 318 318 319 317 315 314 314 310 308 303 304 305 306 307 306 305 306 304 302 301 300 301
290 291 294 295 298 299 300 301 301 304 307 304 305 305 307 310 309 310 312 320 318 316 317 318 317 314 313 314 314 310 305 302 301 304 303 304 304 303 303 300 299 299 298
291 292 293 295 299 299 300 299 299 301 303 308 310 310 310 308 311 314 319 320 319 321 319 319 318 316 315 312 312 311 309 306 301 297 302 303 302 301 300 298 296 296 296
291 291 292 297 298 298 299 299 299 300 303 309 314 311 307 311 315 320 320 320 320 320 319 319 317 316 316 314 312 308 306 305 304 300 296 297 298 298 297 295 294 292 292
290 291 292 297 296 298 298 298 299 299 301 306 309 310 311 313 315 319 319 319 319 318 318 318 318 317 315 313 311 310 308 304 302 302 298 297 293 294 295 295 292 291 290

GFSSE_sfc_thetae_285.txt.gz
Theta_e
311 319 330 333 338 341 343 345 344 344 344 344 343 342 342 341 344 345 345 346 345 345 345 344 343 343 343 343 342 343 343 342 342 342 342 342 340 340 338 338 339 336 338
311 321 326 330 332 334 336 339 342 343 343 343 344 344 343 342 341 344 345 344 345 346 346 345 344 342 342 341 340 341 340 338 338 340 339 340 339 338 336 337 338 338 339
315 318 322 328 330 330 330 331 334 338 342 344 343 343 344 343 343 342 343 343 343 344 344 343 341 339 338 339 340 339 337 336 335 334 333 336 336 336 338 338 339 339 338
312 313 321 325 326 326 327 328 329 330 333 337 341 342 343 343 342 342 342 342 341 341 341 340 339 339 336 337 338 336 334 333 332 331 331 335 335 338 337 338 340 340 340
310 311 316 321 322 323 324 324 325 326 327 331 334 336 340 341 342 342 341 342 342 341 341 338 337 339 337 336 334 333 333 331 330 328 331 333 336 336 338 338 337 337 338
308 308 312 318 319 320 320 321 321 322 324 325 327 331 333 336 339 340 341 340 341 342 341 338 338 338 338 336 333 332 331 330 326 326 328 330 333 334 337 337 335 335 337
306 307 309 313 315 316 317 318 319 320 321 322 323 325 328 331 332 336 339 340 340 340 341 340 340 339 337 335 333 330 330 330 323 323 324 328 333 335 338 335 334 334 335
304 306 306 308 311 312 313 314 315 316 317 318 320 321 322 324 327 330 334 338 339 338 339 339 339 338 336 335 332 330 330 326 321 323 324 327 332 336 336 335 334 334 335
304 305 305 305 306 307 310 312 313 314 315 315 316 317 317 319 322 325 329 332 338 338 339 338 337 337 336 335 332 331 328 324 322 323 329 331 334 336 336 337 336 335 335
303 303 303 304 305 305 306 309 310 312 312 313 313 313 313 314 317 323 324 327 332 338 338 336 336 335 335 333 331 329 325 322 321 322 327 329 334 335 336 336 336 336 335
302 302 303 303 304 304 305 306 308 308 309 310 310 310 310 312 314 316 322 324 331 335 335 334 335 333 332 330 329 326 322 321 321 321 325 326 333 335 336 335 336 334 334
300 302 303 302 303 303 303 305 306 306 307 307 307 308 309 310 311 312 315 320 323 329 332 333 334 331 327 328 327 324 321 319 319 321 323 326 332 335 335 335 334 335 335
300 300 301 302 302 302 302 303 305 305 306 306 306 307 308 309 310 312 316 322 327 322 330 331 330 326 325 326 324 322 320 318 318 321 321 325 331 333 334 334 335 335 334
299 300 300 301 301 301 302 302 303 303 304 305 306 306 307 308 308 309 312 318 322 329 328 328 326 324 324 324 323 320 319 317 318 319 322 324 331 332 333 334 334 333 333
298 299 299 300 300 301 301 302 302 303 303 304 305 306 307 307 307 308 311 315 319 327 327 325 323 321 321 320 320 319 317 317 318 321 326 321 329 331 332 333 333 333 333
298 297 298 299 300 301 301 301 302 303 304 304 305 305 307 307 307 307 308 311 314 325 327 325 321 319 318 318 318 318 316 317 321 324 328 326 324 329 331 331 331 333 333
297 296 296 299 301 300 300 301 302 304 305 306 306 307 307 307 307 307 307 310 315 325 325 322 320 318 315 316 316 315 317 321 323 324 325 325 323 321 327 331 331 331 331
294 294 296 299 299 300 300 301 303 304 306 306 306 307 307 307 307 307 307 310 314 322 322 321 318 316 313 315 313 318 320 319 318 319 320 319 318 318 319 322 328 328 329
293 294 296 298 298 299 300 302 304 305 305 306 306 306 307 307 307 307 308 311 312 321 321 320 318 315 312 315 315 315 316 316 315 315 314 313 313 313 314 313 315 320 326
293 295 296 297 298 299 300 303 304 304 305 307 306 307 306 307 307 307 308 310 311 319 321 320 317 315 315 315 312 310 311 312 312 311 309 309 308 308 309 309 310 313 318
293 294 295 296 298 299 300 300 301 301 304 305 307 307 307 307 307 308 307 309 311 315 320 320 317 314 312 312 308 306 306 308 308 308 307 306 304 303 304 305 305 306 307
292 293 295 296 297 299 300 301 301 302 303 305 307 308 307 307 308 308 307 308 311 311 319 318 316 312 311 313 308 306 301 302 304 305 304 301 300 301 300 300 301 301 303
292 293 295 296 298 299 300 301 302 304 306 307 308 307 307 308 309 308 307 309 310 315 318 317 314 312 310 311 312 309 302 298 299 301 299 299 298 298 298 298 298 299 300
292 293 295 296 298 300 300 300 300 300 301 305 311 310 308 309 310 309 311 312 320 319 317 317 316 314 313 308 312 313 311 305 299 295 296 296 296 295 295 295 295 296 298
292 294 294 296 298 299 299 300 300 300 303 307 308 312 309 309 312 313 313 317 316 317 317 317 316 314 314 311 310 308 307 305 305 298 292 291 294 294 293 293 294 294 293
292 294 295 295 296 298 298 299 299 299 301 303 303 306 311 315 315 318 319 318 317 318 318 317 317 316 314 312 311 308 306 304 302 300 294 292 290 290 291 291 292 292 291

GFSSE_sfc_thetae_288.txt.gz
Theta_e
319 324 329 332 335 336 338 341 343 344 344 344 344 343 342 341 342 344 346 346 345 346 345 345 343 341 339 338 340 339 342 343 345 345 344 343 342 340 340 339 341 338 339
318 322 326 329 331 332 332 333 335 338 341 344 344 344 344 343 342 343 345 346 345 345 346 345 345 343 343 341 341 341 341 341 341 342 341 341 341 339 337 336 339 337 338
318 319 323 326 327 327 328 328 329 331 334 338 341 343 344 343 343 343 343 345 345 345 346 345 344 343 343 342 342 342 339 338 338 338 338 336 336 338 337 338 340 339 338
315 317 320 322 323 324 325 325 326 326 328 331 334 338 339 342 342 343 342 343 344 344 345 344 343 342 341 341 341 340 337 335 335 334 334 334 332 336 339 339 340 340 340
314 314 316 319 320 321 322 322 323 323 324 326 327 331 335 337 340 341 341 342 342 342 342 343 342 341 339 339 338 337 335 333 332 330 334 335 333 335 339 340 339 339 338
313 313 314 316 317 318 319 320 320 321 322 323 324 326 328 331 335 336 340 340 341 341 341 341 341 340 339 338 337 335 333 331 329 328 331 333 332 338 338 337 335 336 337
312 312 312 313 314 315 316 317 318 318 319 320 321 322 324 325 328 333 334 339 340 340 341 341 340 339 338 337 336 333 332 331 326 327 327 331 332 336 338 335 334 335 336
310 311 310 309 310 311 312 313 314 316 317 317 318 319 320 321 323 326 329 334 337 339 339 339 339 338 337 337 335 333 332 328 324 326 327 328 334 336 337 334 334 335 337
310 309 309 309 309 308 309 310 312 313 314 315 315 316 316 317 317 319 323 328 334 337 339 339 338 337 337 336 333 332 328 324 326 327 327 331 333 336 337 336 335 335 337
308 307 308 309 309 310 310 309 309 311 312 313 313 313 313 313 314 315 319 324 328 333 338 338 336 337 336 335 332 329 325 322 326 329 331 333 334 336 337 336 336 336 336
306 307 307 308 308 309 308 307 309 310 310 311 311 311 310 313 314 315 317 319 325 330 334 335 335 334 333 331 329 326 323 324 326 330 331 329 333 335 336 335 336 335 334
305 306 307 307 307 307 307 309 310 311 312 312 312 312 312 312 313 313 312 313 317 322 326 333 333 331 328 328 327 323 322 324 325 327 328 327 332 334 336 334 334 335 336
306 307 306 306 305 307 308 309 310 310 311 312 312 312 312 312 313 313 314 316 321 321 329 332 331 328 326 325 324 322 321 322 324 326 324 325 330 333 335 335 335 335 335
305 305 306 305 305 307 308 308 309 309 310 311 312 312 312 311 312 312 312 314 319 326 332 332 327 325 324 325 323 322 320 321 324 325 323 324 331 332 334 335 335 334 333
304 305 304 304 306 307 307 308 309 309 310 311 311 312 312 311 311 311 312 313 316 323 330 328 324 322 323 322 321 319 319 320 324 324 327 321 329 332 333 333 333 333 333
304 303 302 303 306 307 307 308 308 309 310 311 311 312 311 310 311 311 310 312 315 319 322 324 322 321 320 321 320 319 317 320 325 328 328 327 324 329 331 333 333 333 332
303 301 301 303 306 306 307 307 308 310 310 310 311 312 311 310 309 310 310 311 314 318 321 322 321 322 318 319 318 318 319 322 326 327 328 328 326 320 327 332 332 331 331
301 299 302 304 306 307 306 307 308 310 310 310 309 308 308 309 309 308 309 311 315 316 322 320 319 316 315 317 316 318 323 324 325 326 325 323 322 322 320 326 329 329 329
299 299 302 305 306 306 307 308 309 310 309 309 309 308 309 308 308 309 308 311 314 312 322 320 317 315 315 316 318 319 320 320 320 320 319 318 317 319 320 317 318 322 326
298 300 303 305 306 305 307 307 309 309 309 310 309 309 309 308 308 309 309 311 310 312 319 317 314 315 316 315 312 311 312 312 314 313 312 311 312 314 316 317 319 317 320
298 301 303 304 304 305 304 304 304 303 307 308 309 309 309 308 308 309 309 309 310 310 318 316 313 315 314 313 308 305 306 307 306 306 307 307 307 308 309 310 312 314 314
297 301 303 303 304 303 303 303 303 303 307 310 309 310 309 308 309 309 310 307 309 315 318 315 315 312 311 314 309 306 301 301 301 301 301 302 302 302 302 303 304 305 306
299 302 302 303 303 304 304 304 304 308 309 309 311 310 308 309 310 310 309 309 310 313 317 316 315 312 310 313 314 312 302 297 297 298 296 298 299 299 299 300 300 301 303
300 302 303 303 303 303 304 303 302 304 304 306 311 312 309 309 311 311 311 311 313 314 317 316 315 313 313 310 315 314 313 306 301 293 294 295 296 295 298 298 299 299 302
300 303 303 303 303 302 303 302 303 307 307 310 310 312 311 313 312 311 312 312 317 319 318 316 315 314 313 312 312 313 310 310 308 298 290 290 293 294 294 295 296 299 300
300 303 304 303 302 302 302 302 303 306 305 307 306 309 315 315 315 314 318 319 321 320 319 317 315 314 313 313 312 313 311 307 304 300 294 293 290 291 293 293 294 295 298